• în România
  • Lista ţărilor
  • Pe 7 zile
  • Temperatura apei
  • Hartă satelitară
  • Meteo pe hartă
  • Widget-uri
  • user-avatar
    Intrare

    Meteo pe oră la Barra

    Astăzi, 25 Mai, Vineri

    Timp Temperatura Precipitaţii Vânt Presiune Umiditate
    00:00 +26°C° 0 mm 3 m/s 758 mmHg 62%
    01:00 +26°C° 0 mm 3 m/s 758 mmHg 64%
    02:00 +25°C° 0 mm 3 m/s 758 mmHg 66%
    03:00 +25°C° 0 mm 3 m/s 758 mmHg 67%
    04:00 +25°C° 0 mm 3 m/s 758 mmHg 68%
    05:00 +24°C° 0 mm 3 m/s 758 mmHg 69%
    06:00 +25°C° 0 mm 3 m/s 758 mmHg 64%
    07:00 +26°C° 0 mm 3 m/s 759 mmHg 58%
    08:00 +27°C° 0 mm 4 m/s 759 mmHg 53%
    09:00 +29°C° 0 mm 4 m/s 759 mmHg 46%
    10:00 +33°C° 0 mm 4 m/s 759 mmHg 40%
    11:00 +35°C° 0 mm 4 m/s 758 mmHg 33%
    12:00 +35°C° 0 mm 5 m/s 758 mmHg 33%
    13:00 +36°C° 0 mm 5 m/s 757 mmHg 32%
    14:00 +37°C° 0 mm 5 m/s 757 mmHg 32%
    15:00 +35°C° 0 mm 6 m/s 757 mmHg 37%
    16:00 +34°C° 0 mm 6 m/s 756 mmHg 42%
    17:00 +32°C° 0 mm 6 m/s 756 mmHg 47%
    18:00 +30°C° 0 mm 6 m/s 757 mmHg 52%
    19:00 +28°C° 0 mm 6 m/s 757 mmHg 57%
    20:00 +27°C° 0 mm 6 m/s 758 mmHg 62%
    21:00 +26°C° 0 mm 5 m/s 758 mmHg 63%
    22:00 +26°C° 0 mm 5 m/s 758 mmHg 65%
    23:00 +25°C° 0 mm 4 m/s 759 mmHg 67%

    Mâine, 26 Mai, Sâmbătă

    Timp Temperatura Precipitaţii Vânt Presiune Umiditate
    00:00 +25°C° 0 mm 4 m/s 758 mmHg 69%
    01:00 +25°C° 0 mm 3 m/s 758 mmHg 71%
    02:00 +24°C° 0 mm 3 m/s 758 mmHg 73%
    03:00 +24°C° 0 mm 3 m/s 758 mmHg 74%
    04:00 +24°C° 0 mm 3 m/s 758 mmHg 76%
    05:00 +22°C° 0 mm 3 m/s 758 mmHg 78%
    06:00 +24°C° 0 mm 3 m/s 758 mmHg 72%
    07:00 +25°C° 0 mm 4 m/s 759 mmHg 66%
    08:00 +26°C° 0 mm 4 m/s 759 mmHg 60%
    09:00 +29°C° 0 mm 4 m/s 759 mmHg 51%
    10:00 +32°C° 0 mm 4 m/s 759 mmHg 43%
    11:00 +34°C° 0 mm 3 m/s 759 mmHg 34%
    12:00 +35°C° 0 mm 4 m/s 759 mmHg 34%
    13:00 +35°C° 0 mm 5 m/s 758 mmHg 33%
    14:00 +36°C° 0 mm 5 m/s 757 mmHg 32%
    15:00 +35°C° 0 mm 6 m/s 757 mmHg 37%
    16:00 +33°C° 0 mm 6 m/s 757 mmHg 42%
    17:00 +30°C° 0 mm 6 m/s 756 mmHg 48%
    18:00 +29°C° 0 mm 6 m/s 757 mmHg 53%
    19:00 +28°C° 0 mm 6 m/s 758 mmHg 58%
    20:00 +26°C° 0 mm 6 m/s 758 mmHg 63%
    21:00 +26°C° 0 mm 6 m/s 758 mmHg 64%
    22:00 +25°C° 0 mm 5 m/s 759 mmHg 66%
    23:00 +25°C° 0 mm 5 m/s 759 mmHg 67%

    Poimâine, 27 Mai, Duminică

    Timp Temperatura Precipitaţii Vânt Presiune Umiditate
    00:00 +25°C° 0 mm 5 m/s 759 mmHg 68%
    01:00 +25°C° 0 mm 5 m/s 758 mmHg 68%
    02:00 +25°C° 0 mm 5 m/s 758 mmHg 69%
    03:00 +23°C° 0 mm 4 m/s 758 mmHg 70%
    04:00 +23°C° 0 mm 4 m/s 758 mmHg 72%
    05:00 +24°C° 0 mm 3 m/s 758 mmHg 73%
    06:00 +25°C° 0 mm 3 m/s 759 mmHg 68%
    07:00 +25°C° 0 mm 3 m/s 759 mmHg 63%
    08:00 +26°C° 0 mm 3 m/s 760 mmHg 57%
    09:00 +29°C° 0 mm 3 m/s 760 mmHg 49%
    10:00 +32°C° 0 mm 4 m/s 760 mmHg 41%
    11:00 +34°C° 0 mm 4 m/s 760 mmHg 33%
    12:00 +35°C° 0 mm 4 m/s 759 mmHg 33%
    13:00 +35°C° 0 mm 5 m/s 759 mmHg 33%
    14:00 +36°C° 0 mm 5 m/s 758 mmHg 34%
    15:00 +34°C° 0 mm 6 m/s 758 mmHg 39%
    16:00 +33°C° 0 mm 6 m/s 758 mmHg 45%
    17:00 +30°C° 0 mm 7 m/s 757 mmHg 51%
    18:00 +29°C° 0 mm 7 m/s 758 mmHg 55%
    19:00 +28°C° 0 mm 7 m/s 758 mmHg 60%
    20:00 +26°C° 0 mm 6 m/s 759 mmHg 65%
    21:00 +26°C° 0 mm 6 m/s 759 mmHg 66%
    22:00 +24°C° 0 mm 6 m/s 759 mmHg 67%
    23:00 +25°C° 0 mm 5 m/s 759 mmHg 68%

    28 Mai, Luni

    Timp Temperatura Precipitaţii Vânt Presiune Umiditate
    00:00 +25°C° 0 mm 5 m/s 759 mmHg 68%
    01:00 +25°C° 0 mm 5 m/s 758 mmHg 69%
    02:00 +23°C° 0 mm 5 m/s 758 mmHg 69%
    03:00 +23°C° 0 mm 4 m/s 758 mmHg 69%
    04:00 +23°C° 0 mm 4 m/s 758 mmHg 69%
    05:00 +23°C° 0 mm 4 m/s 758 mmHg 69%
    06:00 +25°C° 0 mm 4 m/s 759 mmHg 63%
    07:00 +26°C° 0 mm 4 m/s 759 mmHg 56%
    08:00 +27°C° 0 mm 4 m/s 760 mmHg 49%
    09:00 +30°C° 0 mm 4 m/s 760 mmHg 41%
    10:00 +34°C° 0 mm 4 m/s 759 mmHg 33%
    11:00 +36°C° 0 mm 3 m/s 759 mmHg 25%
    12:00 +37°C° 0 mm 4 m/s 759 mmHg 26%
    13:00 +39°C° 0 mm 5 m/s 758 mmHg 27%
    14:00 +39°C° 0 mm 6 m/s 757 mmHg 27%
    15:00 +38°C° 0 mm 6 m/s 757 mmHg 33%
    16:00 +35°C° 0 mm 7 m/s 756 mmHg 40%
    17:00 +33°C° 0 mm 8 m/s 756 mmHg 46%
    18:00 +30°C° 0 mm 7 m/s 756 mmHg 49%
    19:00 +29°C° 0 mm 7 m/s 757 mmHg 52%
    20:00 +28°C° 0 mm 7 m/s 758 mmHg 55%
    21:00 +27°C° 0 mm 6 m/s 758 mmHg 57%
    22:00 +27°C° 0 mm 5 m/s 758 mmHg 58%
    23:00 +26°C° 0 mm 4 m/s 758 mmHg 59%

    29 Mai, Marţi

    Timp Temperatura Precipitaţii Vânt Presiune Umiditate
    00:00 +26°C° 0 mm 3 m/s 758 mmHg 60%
    01:00 +26°C° 0 mm 3 m/s 758 mmHg 61%
    02:00 +25°C° 0 mm 3 m/s 757 mmHg 62%
    03:00 +25°C° 0 mm 3 m/s 757 mmHg 62%
    04:00 +25°C° 0 mm 2 m/s 758 mmHg 63%
    05:00 +24°C° 0 mm 2 m/s 758 mmHg 63%
    06:00 +25°C° 0 mm 2 m/s 758 mmHg 59%
    07:00 +26°C° 0 mm 2 m/s 759 mmHg 55%
    08:00 +27°C° 0 mm 1 m/s 759 mmHg 51%
    09:00 +30°C° 0 mm 2 m/s 759 mmHg 45%
    10:00 +32°C° 0 mm 2 m/s 759 mmHg 39%
    11:00 +35°C° 0 mm 2 m/s 759 mmHg 33%
    12:00 +35°C° 0 mm 3 m/s 758 mmHg 33%
    13:00 +36°C° 0 mm 4 m/s 757 mmHg 32%
    14:00 +37°C° 0 mm 5 m/s 757 mmHg 32%
    15:00 +35°C° 0 mm 5 m/s 757 mmHg 37%
    16:00 +34°C° 0 mm 5 m/s 756 mmHg 42%
    17:00 +32°C° 0 mm 6 m/s 756 mmHg 47%
    18:00 +30°C° 0 mm 5 m/s 757 mmHg 53%
    19:00 +28°C° 0 mm 5 m/s 758 mmHg 58%
    20:00 +27°C° 0 mm 4 m/s 759 mmHg 64%
    21:00 +27°C° 0 mm 4 m/s 759 mmHg 66%
    22:00 +26°C° 0 mm 4 m/s 759 mmHg 69%
    23:00 +26°C° 0 mm 3 m/s 759 mmHg 71%

    30 Mai, Miercuri

    Timp Temperatura Precipitaţii Vânt Presiune Umiditate
    00:00 +25°C° 0 mm 3 m/s 759 mmHg 73%
    01:00 +25°C° 0 mm 3 m/s 758 mmHg 74%
    02:00 +25°C° 0 mm 2 m/s 758 mmHg 75%
    03:00 +25°C° 0 mm 2 m/s 758 mmHg 76%
    04:00 +25°C° 0 mm 2 m/s 758 mmHg 76%
    05:00 +24°C° 0 mm 2 m/s 758 mmHg 77%
    06:00 +26°C° 0 mm 2 m/s 758 mmHg 71%
    07:00 +27°C° 0 mm 2 m/s 759 mmHg 64%
    08:00 +28°C° 0 mm 3 m/s 759 mmHg 58%
    09:00 +30°C° 0 mm 3 m/s 759 mmHg 51%
    10:00 +33°C° 0 mm 3 m/s 759 mmHg 44%
    11:00 +35°C° 0 mm 3 m/s 759 mmHg 37%
    12:00 +35°C° 0 mm 4 m/s 759 mmHg 36%
    13:00 +36°C° 0 mm 5 m/s 758 mmHg 35%
    14:00 +36°C° 0 mm 6 m/s 757 mmHg 35%
    15:00 +35°C° 0 mm 6 m/s 757 mmHg 38%
    16:00 +33°C° 0 mm 6 m/s 757 mmHg 42%
    17:00 +32°C° 0 mm 5 m/s 757 mmHg 46%
    18:00 +30°C° 0 mm 5 m/s 757 mmHg 53%
    19:00 +28°C° 0 mm 5 m/s 758 mmHg 60%
    20:00 +27°C° 0 mm 5 m/s 758 mmHg 67%
    21:00 +26°C° 0 mm 5 m/s 758 mmHg 68%
    22:00 +26°C° 0 mm 4 m/s 758 mmHg 70%
    23:00 +26°C° 0 mm 4 m/s 759 mmHg 72%
    Arată mai mult